OneWeb SL0113

operational
NORAD ID: 48050 Int'l Des: 2021-025 Owner: ONEWEBN Country: UK Constellation: oneweb
LEOCIRCULARPOLARONEWEB_TYPE

关于 OneWeb SL0113

正在加载描述...

实时位置

正在加载3D地球...

即将过境

高度历史

Altitude vs Time

uPlot chart will show altitude changes over time

两行轨道根数

1 48050U 21025J 25306.16648226 .00000191 00000-0 48417-3 0 9996
2 48050 87.9034 5.2895 0001636 102.5499 257.5814 13.13981561223798
Epoch: Nov 2, 2025 • Age: 37 hours

当前状态

高度 1212.2 km
速度 7.25 km/s
星下点 38.20°N, 118.87°W
发射日期 Mar 25, 2021
运行时间 4.6 years
类型 internet

技术详情

分类 Payload
质量 148.00 kg
干质量 140.00 kg
总质量 148.00 kg
长度 1.30 m
直径 1.00 m
跨度 5.00 m
形状 Trapezoid+2 pan
制造商 ONEWUS
平台类型 ARROW
阶段状态 In Orbit
所有者/国家 ONEWEBN/UK

大型星座

Loading constellations...